Powrót do katalogu

FREGAT DEB

AktywnyUNKNOWN
NORAD 46413·DEBRIS·🇷🇺 Russia

Wystrzelony Jul 18, 2011 z Baikonur Cosmodrome

Loading…

Następne Przeloty (najbliższe 24 godziny)

TLE

ŚwieżeSource: Space-Track

Epoka: Sep 14, 2026, 05:20 UTC

1 46413U 11037LU  26257.22260731  .00008814  00000-0  40626-1 0  9995
2 46413  51.0553 334.6619 1141781 314.7730  36.5506 11.50468206 96653

Śledź FREGAT DEB w czasie rzeczywistym z AllMySat

Download on the App Store